| time (UTC) | temp F | wind direction | speed MPH | gust MPH | rain 1hr in | rain 24hr in | rain mn in | humidity % | barometer mb |
| 20260902002654 | 90 | 0 | 0.0 | 0.0 | 0.00 | 0.00 | 0.00 | 50 | 1017.4 |
| 20260902002149 | 90 | 0 | 0.0 | 0.0 | 0.00 | 0.00 | 0.00 | 50 | 1017.5 |
| 20260902001644 | 91 | 0 | 0.0 | 1.0 | 0.00 | 0.00 | 0.00 | 49 | 1017.4 |
| 20260902001144 | 91 | 69 | 0.0 | 3.0 | 0.00 | 0.00 | 0.00 | 49 | 1017.5 |
| 20260902000639 | 91 | 89 | 0.0 | 3.0 | 0.00 | 0.00 | 0.00 | 48 | 1017.4 |
| 20260902000134 | 91 | 89 | 0.0 | 2.0 | 0.00 | 0.00 | 0.00 | 48 | 1017.6 |
| 20260901235634 | 92 | 119 | 1.0 | 2.0 | 0.00 | 0.00 | 0.00 | 48 | 1017.4 |
| 20260901235129 | 92 | 89 | 0.0 | 2.0 | 0.00 | 0.00 | 0.00 | 47 | 1017.4 |
| 20260901234628 | 92 | 48 | 1.0 | 3.0 | 0.00 | 0.00 | 0.00 | 47 | 1017.4 |
| 20260901234124 | 92 | 135 | 0.0 | 1.0 | 0.00 | 0.00 | 0.00 | 47 | 1017.4 |
| 20260901233619 | 93 | 87 | 1.0 | 2.0 | 0.00 | 0.00 | 0.00 | 46 | 1017.4 |
| 20260901233115 | 93 | 104 | 0.0 | 3.0 | 0.00 | 0.00 | 0.00 | 46 | 1017.4 |
| 20260901232614 | 93 | 193 | 2.0 | 4.0 | 0.00 | 0.00 | 0.00 | 45 | 1017.4 |
| 20260901232109 | 93 | 54 | 2.0 | 2.0 | 0.00 | 0.00 | 0.00 | 45 | 1017.6 |
| 20260901231606 | 94 | 117 | 0.0 | 2.0 | 0.00 | 0.00 | 0.00 | 45 | 1017.6 |
| 20260901231102 | 94 | 141 | 2.0 | 3.0 | 0.00 | 0.00 | 0.00 | 44 | 1017.5 |
| 20260901230558 | 94 | 86 | 2.0 | 3.0 | 0.00 | 0.00 | 0.00 | 43 | 1017.4 |
| 20260901230057 | 94 | 136 | 2.0 | 3.0 | 0.00 | 0.00 | 0.00 | 42 | 1017.3 |
| 20260901225553 | 94 | 58 | 0.0 | 2.0 | 0.00 | 0.00 | 0.00 | 43 | 1017.5 |
| 20260901225052 | 94 | 15 | 0.0 | 3.0 | 0.00 | 0.00 | 0.00 | 43 | 1017.4 |
| 20260901224548 | 94 | 0 | 1.0 | 2.0 | 0.00 | 0.00 | 0.00 | 43 | 1017.4 |
| 20260901224044 | 94 | 94 | 1.0 | 3.0 | 0.00 | 0.00 | 0.00 | 42 | 1017.4 |
| 20260901223540 | 95 | 167 | 2.0 | 6.0 | 0.00 | 0.00 | 0.00 | 41 | 1017.3 |
| 20260901223035 | 95 | 142 | 5.0 | 5.0 | 0.00 | 0.00 | 0.00 | 42 | 1017.5 |
| 20260901222531 | 94 | 230 | 0.0 | 2.0 | 0.00 | 0.00 | 0.00 | 41 | 1017.4 |
| 20260901222026 | 95 | 146 | 1.0 | 3.0 | 0.00 | 0.00 | 0.00 | 42 | 1017.3 |
| 20260901221523 | 95 | 4 | 2.0 | 2.0 | 0.00 | 0.00 | 0.00 | 41 | 1017.4 |
| 20260901221018 | 95 | 129 | 2.0 | 4.0 | 0.00 | 0.00 | 0.00 | 41 | 1017.5 |
| 20260901220518 | 96 | 354 | 2.0 | 5.0 | 0.00 | 0.00 | 0.00 | 41 | 1017.3 |
| 20260901220016 | 96 | 51 | 3.0 | 4.0 | 0.00 | 0.00 | 0.00 | 41 | 1017.3 |
| 20260901215514 | 96 | 138 | 2.0 | 7.0 | 0.00 | 0.00 | 0.00 | 40 | 1017.2 |
| 20260901215009 | 96 | 144 | 1.0 | 3.0 | 0.00 | 0.00 | 0.00 | 41 | 1017.2 |
| 20260901214508 | 96 | 57 | 0.0 | 3.0 | 0.00 | 0.00 | 0.00 | 40 | 1017.3 |
| 20260901214002 | 96 | 222 | 1.0 | 4.0 | 0.00 | 0.00 | 0.00 | 39 | 1017.3 |
| 20260901213456 | 96 | 168 | 0.0 | 6.0 | 0.00 | 0.00 | 0.00 | 38 | 1017.3 |
| 20260901212955 | 96 | 36 | 0.0 | 6.0 | 0.00 | 0.00 | 0.00 | 38 | 1017.4 |
| 20260901212451 | 96 | 109 | 3.0 | 7.0 | 0.00 | 0.00 | 0.00 | 39 | 1017.3 |
| 20260901211948 | 96 | 121 | 2.0 | 4.0 | 0.00 | 0.00 | 0.00 | 39 | 1017.4 |
| 20260901211443 | 95 | 121 | 1.0 | 7.0 | 0.00 | 0.00 | 0.00 | 38 | 1017.4 |
| 20260901210939 | 95 | 197 | 0.0 | 3.0 | 0.00 | 0.00 | 0.00 | 37 | 1017.4 |
| 20260901210434 | 95 | 137 | 4.0 | 7.0 | 0.00 | 0.00 | 0.00 | 37 | 1017.5 |
| 20260901205931 | 95 | 143 | 6.0 | 7.0 | 0.00 | 0.00 | 0.00 | 41 | 1017.6 |
| 20260901205430 | 95 | 297 | 4.0 | 5.0 | 0.00 | 0.00 | 0.00 | 42 | 1017.5 |
| 20260901204925 | 95 | 300 | 2.0 | 3.0 | 0.00 | 0.00 | 0.00 | 41 | 1017.8 |
| 20260901204422 | 95 | 96 | 2.0 | 2.0 | 0.00 | 0.00 | 0.00 | 40 | 1017.7 |
| 20260901203921 | 96 | 147 | 0.0 | 4.0 | 0.00 | 0.00 | 0.00 | 39 | 1017.7 |
| 20260901203418 | 96 | 168 | 2.0 | 6.0 | 0.00 | 0.00 | 0.00 | 40 | 1017.9 |
| 20260901202912 | 96 | 149 | 4.0 | 7.0 | 0.00 | 0.00 | 0.00 | 40 | 1017.8 |
| 20260901202406 | 96 | 201 | 2.0 | 6.0 | 0.00 | 0.00 | 0.00 | 40 | 1017.9 |
| 20260901201902 | 96 | 55 | 2.0 | 4.0 | 0.00 | 0.00 | 0.00 | 42 | 1017.9 |
| 20260901201401 | 95 | 158 | 2.0 | 4.0 | 0.00 | 0.00 | 0.00 | 41 | 1018.0 |
| 20260901200856 | 96 | 147 | 4.0 | 9.0 | 0.00 | 0.00 | 0.00 | 39 | 1018.0 |
| 20260901200351 | 96 | 172 | 0.0 | 11.0 | 0.00 | 0.00 | 0.00 | 39 | 1018.1 |
| 20260901195849 | 96 | 193 | 5.0 | 9.0 | 0.00 | 0.00 | 0.00 | 38 | 1018.0 |
| 20260901195343 | 96 | 156 | 1.0 | 6.0 | 0.00 | 0.00 | 0.00 | 39 | 1018.2 |
| 20260901194838 | 96 | 313 | 2.0 | 5.0 | 0.00 | 0.00 | 0.00 | 40 | 1018.2 |
| 20260901194332 | 96 | 226 | 4.0 | 6.0 | 0.00 | 0.00 | 0.00 | 40 | 1018.3 |
| 20260901193830 | 96 | 108 | 3.0 | 9.0 | 0.00 | 0.00 | 0.00 | 40 | 1018.3 |
| 20260901193328 | 96 | 71 | 2.0 | 5.0 | 0.00 | 0.00 | 0.00 | 40 | 1018.3 |
| 20260901192822 | 96 | 200 | 5.0 | 9.0 | 0.00 | 0.00 | 0.00 | 40 | 1018.4 |
| 20260901192318 | 97 | 155 | 3.0 | 6.0 | 0.00 | 0.00 | 0.00 | 41 | 1018.4 |
| 20260901191815 | 97 | 144 | 3.0 | 6.0 | 0.00 | 0.00 | 0.00 | 41 | 1018.6 |
| 20260901191310 | 96 | 337 | 3.0 | 6.0 | 0.00 | 0.00 | 0.00 | 42 | 1018.6 |
| 20260901190806 | 96 | 140 | 4.0 | 10.0 | 0.00 | 0.00 | 0.00 | 40 | 1018.7 |
| 20260901190305 | 96 | 248 | 5.0 | 8.0 | 0.00 | 0.00 | 0.00 | 42 | 1018.8 |
| 20260901185804 | 96 | 332 | 1.0 | 3.0 | 0.00 | 0.00 | 0.00 | 43 | 1019.0 |
| 20260901185305 | 96 | 10 | 3.0 | 4.0 | 0.00 | 0.00 | 0.00 | 43 | 1018.9 |
| 20260901184758 | 95 | 110 | 4.0 | 6.0 | 0.00 | 0.00 | 0.00 | 43 | 1018.9 |
| 20260901184248 | 95 | 87 | 2.0 | 7.0 | 0.00 | 0.00 | 0.00 | 44 | 1018.9 |
| 20260901183744 | 95 | 132 | 2.0 | 6.0 | 0.00 | 0.00 | 0.00 | 43 | 1018.9 |
| 20260901183243 | 96 | 139 | 5.0 | 9.0 | 0.00 | 0.00 | 0.00 | 42 | 1019.1 |
| 20260901182739 | 96 | 22 | 1.0 | 7.0 | 0.00 | 0.00 | 0.00 | 43 | 1019.0 |
| 20260901182238 | 96 | 312 | 3.0 | 5.0 | 0.00 | 0.00 | 0.00 | 44 | 1019.2 |
| 20260901181733 | 95 | 117 | 4.0 | 6.0 | 0.00 | 0.00 | 0.00 | 43 | 1019.2 |
| 20260901181228 | 96 | 97 | 2.0 | 8.0 | 0.00 | 0.00 | 0.00 | 42 | 1019.3 |
| 20260901180727 | 96 | 288 | 4.0 | 6.0 | 0.00 | 0.00 | 0.00 | 43 | 1019.3 |
| 20260901180226 | 96 | 158 | 2.0 | 4.0 | 0.00 | 0.00 | 0.00 | 42 | 1019.4 |
| 20260901175725 | 96 | 304 | 0.0 | 6.0 | 0.00 | 0.00 | 0.00 | 41 | 1019.3 |
| 20260901175221 | 96 | 140 | 2.0 | 7.0 | 0.00 | 0.00 | 0.00 | 43 | 1019.4 |
| 20260901174715 | 95 | 85 | 2.0 | 2.0 | 0.00 | 0.00 | 0.00 | 42 | 1019.4 |
| 20260901174212 | 95 | 111 | 3.0 | 3.0 | 0.00 | 0.00 | 0.00 | 43 | 1019.5 |
| 20260901173707 | 95 | 299 | 3.0 | 4.0 | 0.00 | 0.00 | 0.00 | 43 | 1019.6 |
| 20260901173202 | 95 | 171 | 3.0 | 6.0 | 0.00 | 0.00 | 0.00 | 41 | 1019.8 |
| 20260901172657 | 95 | 159 | 3.0 | 10.0 | 0.00 | 0.00 | 0.00 | 42 | 1019.9 |
| 20260901172150 | 94 | 208 | 1.0 | 6.0 | 0.00 | 0.00 | 0.00 | 44 | 1019.9 |
| 20260901171649 | 94 | 129 | 2.0 | 6.0 | 0.00 | 0.00 | 0.00 | 46 | 1019.8 |
| 20260901171149 | 94 | 89 | 0.0 | 3.0 | 0.00 | 0.00 | 0.00 | 50 | 1020.0 |
| 20260901170648 | 94 | 48 | 2.0 | 3.0 | 0.00 | 0.00 | 0.00 | 51 | 1020.0 |
| 20260901170143 | 94 | 234 | 4.0 | 7.0 | 0.00 | 0.00 | 0.00 | 51 | 1020.1 |
| 20260901165642 | 94 | 157 | 1.0 | 4.0 | 0.00 | 0.00 | 0.00 | 48 | 1020.2 |
| 20260901165137 | 94 | 342 | 4.0 | 4.0 | 0.00 | 0.00 | 0.00 | 49 | 1020.3 |
| 20260901164634 | 94 | 251 | 2.0 | 6.0 | 0.00 | 0.00 | 0.00 | 51 | 1020.4 |
| 20260901164128 | 93 | 80 | 3.0 | 5.0 | 0.00 | 0.00 | 0.00 | 49 | 1020.2 |
| 20260901163624 | 94 | 69 | 0.0 | 4.0 | 0.00 | 0.00 | 0.00 | 50 | 1020.3 |
| 20260901163122 | 94 | 298 | 1.0 | 4.0 | 0.00 | 0.00 | 0.00 | 51 | 1020.4 |
| 20260901162618 | 93 | 112 | 3.0 | 6.0 | 0.00 | 0.00 | 0.00 | 51 | 1020.5 |
| 20260901162112 | 93 | 180 | 2.0 | 6.0 | 0.00 | 0.00 | 0.00 | 52 | 1020.4 |
| 20260901161611 | 93 | 220 | 0.0 | 4.0 | 0.00 | 0.00 | 0.00 | 53 | 1020.6 |
| 20260901161110 | 92 | 69 | 0.0 | 2.0 | 0.00 | 0.00 | 0.00 | 53 | 1020.6 |
| 20260901160607 | 92 | 199 | 5.0 | 6.0 | 0.00 | 0.00 | 0.00 | 52 | 1020.5 |
| 20260901155600 | 91 | 204 | 5.0 | 6.0 | 0.00 | 0.00 | 0.00 | 57 | 1020.6 |
| 20260901155051 | 91 | 340 | 2.0 | 4.0 | 0.00 | 0.00 | 0.00 | 58 | 1020.5 |
| 20260901154551 | 91 | 350 | 3.0 | 4.0 | 0.00 | 0.00 | 0.00 | 59 | 1020.7 |
| 20260901154046 | 91 | 10 | 2.0 | 3.0 | 0.00 | 0.00 | 0.00 | 60 | 1020.5 |
| 20260901153546 | 90 | 338 | 2.0 | 4.0 | 0.00 | 0.00 | 0.00 | 61 | 1020.7 |
| 20260901153040 | 90 | 258 | 4.0 | 6.0 | 0.00 | 0.00 | 0.00 | 62 | 1020.6 |
| 20260901152535 | 89 | 359 | 0.0 | 2.0 | 0.00 | 0.00 | 0.00 | 62 | 1020.8 |
| 20260901152034 | 89 | 210 | 1.0 | 3.0 | 0.00 | 0.00 | 0.00 | 61 | 1020.7 |
| 20260901151530 | 89 | 174 | 2.0 | 4.0 | 0.00 | 0.00 | 0.00 | 62 | 1020.8 |
| 20260901151029 | 89 | 341 | 0.0 | 4.0 | 0.00 | 0.00 | 0.00 | 63 | 1020.7 |
| 20260901150527 | 88 | 339 | 1.0 | 4.0 | 0.00 | 0.00 | 0.00 | 65 | 1020.8 |
| 20260901150026 | 88 | 245 | 2.0 | 3.0 | 0.00 | 0.00 | 0.00 | 65 | 1021.0 |
| 20260901145524 | 87 | 265 | 2.0 | 5.0 | 0.00 | 0.00 | 0.00 | 64 | 1020.7 |
| 20260901145019 | 87 | 358 | 0.0 | 3.0 | 0.00 | 0.00 | 0.00 | 67 | 1021.1 |
| 20260901144515 | 87 | 332 | 3.0 | 3.0 | 0.00 | 0.00 | 0.00 | 67 | 1021.0 |
| 20260901144010 | 86 | 334 | 2.0 | 3.0 | 0.00 | 0.00 | 0.00 | 70 | 1021.0 |
| 20260901143505 | 86 | 6 | 0.0 | 3.0 | 0.00 | 0.00 | 0.00 | 72 | 1020.7 |
| 20260901143001 | 86 | 12 | 1.0 | 3.0 | 0.00 | 0.00 | 0.00 | 72 | 1021.0 |
| 20260901142455 | 85 | 359 | 1.0 | 2.0 | 0.00 | 0.00 | 0.00 | 72 | 1021.2 |
| 20260901141950 | 85 | 293 | 0.0 | 2.0 | 0.00 | 0.00 | 0.00 | 72 | 1021.1 |
| 20260901141444 | 84 | 157 | 2.0 | 4.0 | 0.00 | 0.00 | 0.00 | 72 | 1021.0 |
| 20260901140940 | 84 | 214 | 2.0 | 4.0 | 0.00 | 0.00 | 0.00 | 74 | 1021.0 |
| 20260901140438 | 83 | 178 | 3.0 | 4.0 | 0.00 | 0.00 | 0.00 | 74 | 1021.1 |
| 20260901135932 | 83 | 169 | 2.0 | 5.0 | 0.00 | 0.00 | 0.00 | 75 | 1021.0 |
| 20260901135427 | 82 | 133 | 3.0 | 4.0 | 0.00 | 0.00 | 0.00 | 76 | 1021.0 |
| 20260901134923 | 82 | 173 | 1.0 | 3.0 | 0.00 | 0.00 | 0.00 | 76 | 1021.2 |
| 20260901134419 | 82 | 104 | 2.0 | 5.0 | 0.00 | 0.00 | 0.00 | 78 | 1021.0 |
| 20260901133918 | 81 | 97 | 1.0 | 4.0 | 0.00 | 0.00 | 0.00 | 79 | 1020.8 |
| 20260901133412 | 80 | 174 | 0.0 | 3.0 | 0.00 | 0.00 | 0.00 | 82 | 1021.1 |
| 20260901132911 | 80 | 158 | 2.0 | 4.0 | 0.00 | 0.00 | 0.00 | 84 | 1021.0 |
| 20260901132406 | 78 | 174 | 2.0 | 5.0 | 0.00 | 0.00 | 0.00 | 87 | 1021.0 |
| 20260901131905 | 78 | 24 | 1.0 | 3.0 | 0.00 | 0.00 | 0.00 | 88 | 1021.2 |
| 20260901131404 | 77 | 120 | 3.0 | 4.0 | 0.00 | 0.00 | 0.00 | 88 | 1021.0 |
| 20260901130900 | 76 | 299 | 0.0 | 2.0 | 0.00 | 0.00 | 0.00 | 88 | 1021.1 |
| 20260901130354 | 76 | 315 | 0.0 | 1.0 | 0.00 | 0.00 | 0.00 | 89 | 1021.0 |
| 20260901125852 | 76 | 14 | 0.0 | 1.0 | 0.00 | 0.00 | 0.00 | 89 | 1020.8 |
| 20260901125351 | 75 | 40 | 2.0 | 2.0 | 0.00 | 0.00 | 0.00 | 89 | 1020.7 |
| 20260901124846 | 75 | 322 | 0.0 | 2.0 | 0.00 | 0.00 | 0.00 | 89 | 1020.6 |
| 20260901124342 | 75 | 322 | 0.0 | 2.0 | 0.00 | 0.00 | 0.00 | 89 | 1020.6 |
| 20260901123841 | 74 | 351 | 0.0 | 1.0 | 0.00 | 0.00 | 0.00 | 89 | 1020.6 |
| 20260901123336 | 74 | 342 | 0.0 | 1.0 | 0.00 | 0.00 | 0.00 | 89 | 1020.4 |
| 20260901122834 | 74 | 14 | 0.0 | 1.0 | 0.00 | 0.00 | 0.00 | 89 | 1020.5 |
| 20260901122329 | 73 | 17 | 0.0 | 2.0 | 0.00 | 0.00 | 0.00 | 89 | 1020.4 |
| 20260901121828 | 73 | 309 | 0.0 | 1.0 | 0.00 | 0.00 | 0.00 | 89 | 1020.4 |
| 20260901121324 | 73 | 315 | 0.0 | 2.0 | 0.00 | 0.00 | 0.00 | 89 | 1020.5 |
| 20260901120819 | 73 | 310 | 0.0 | 1.0 | 0.00 | 0.00 | 0.00 | 89 | 1020.4 |
| 20260901120313 | 73 | 7 | 0.0 | 0.0 | 0.00 | 0.00 | 0.00 | 89 | 1020.4 |
| 20260901115808 | 73 | 308 | 0.0 | 1.0 | 0.00 | 0.00 | 0.00 | 89 | 1020.2 |
| 20260901115306 | 73 | 293 | 0.0 | 1.0 | 0.00 | 0.00 | 0.00 | 89 | 1020.4 |
| 20260901114755 | 73 | 1 | 0.0 | 2.0 | 0.00 | 0.00 | 0.00 | 88 | 1020.2 |
| 20260901114251 | 73 | 51 | 0.0 | 2.0 | 0.00 | 0.00 | 0.00 | 88 | 1020.1 |
| 20260901113749 | 73 | 142 | 0.0 | 1.0 | 0.00 | 0.00 | 0.00 | 88 | 1020.1 |
| 20260901113244 | 73 | 50 | 0.0 | 1.0 | 0.00 | 0.00 | 0.00 | 88 | 1020.0 |
| 20260901112743 | 73 | 280 | 0.0 | 1.0 | 0.00 | 0.00 | 0.00 | 88 | 1019.9 |
| 20260901112238 | 73 | 15 | 0.0 | 1.0 | 0.00 | 0.00 | 0.00 | 88 | 1019.8 |
| 20260901111733 | 73 | 13 | 0.0 | 1.0 | 0.00 | 0.00 | 0.00 | 88 | 1019.7 |
| 20260901111232 | 73 | 345 | 0.0 | 0.0 | 0.00 | 0.00 | 0.00 | 88 | 1019.8 |
| 20260901110726 | 73 | 345 | 0.0 | 0.0 | 0.00 | 0.00 | 0.00 | 88 | 1019.7 |
| 20260901110221 | 73 | 345 | 0.0 | 0.0 | 0.00 | 0.00 | 0.00 | 88 | 1019.8 |
| 20260901105718 | 73 | 345 | 0.0 | 1.0 | 0.00 | 0.00 | 0.00 | 88 | 1019.6 |
| 20260901105218 | 73 | 7 | 0.0 | 0.0 | 0.00 | 0.00 | 0.00 | 88 | 1019.6 |
| 20260901104714 | 73 | 6 | 0.0 | 1.0 | 0.00 | 0.00 | 0.00 | 88 | 1019.9 |
| 20260901104209 | 73 | 38 | 0.0 | 0.0 | 0.00 | 0.00 | 0.00 | 88 | 1019.7 |
| 20260901103708 | 73 | 38 | 0.0 | 0.0 | 0.00 | 0.00 | 0.00 | 87 | 1019.6 |
| 20260901103204 | 74 | 38 | 0.0 | 0.0 | 0.00 | 0.00 | 0.00 | 87 | 1019.4 |
| 20260901102704 | 74 | 37 | 0.0 | 1.0 | 0.00 | 0.00 | 0.00 | 87 | 1019.5 |
| 20260901102203 | 74 | 351 | 0.0 | 1.0 | 0.00 | 0.00 | 0.00 | 87 | 1019.2 |
| 20260901101659 | 74 | 343 | 0.0 | 1.0 | 0.00 | 0.00 | 0.00 | 87 | 1019.5 |
| 20260901101159 | 74 | 30 | 0.0 | 1.0 | 0.00 | 0.00 | 0.00 | 87 | 1019.5 |
| 20260901100653 | 74 | 0 | 0.0 | 1.0 | 0.00 | 0.00 | 0.00 | 87 | 1019.4 |
| 20260901100148 | 74 | 256 | 0.0 | 1.0 | 0.00 | 0.00 | 0.00 | 87 | 1019.7 |
| 20260901095646 | 74 | 62 | 0.0 | 0.0 | 0.00 | 0.00 | 0.00 | 87 | 1019.5 |
| 20260901095144 | 74 | 62 | 0.0 | 1.0 | 0.00 | 0.00 | 0.00 | 87 | 1019.5 |
| 20260901094638 | 74 | 22 | 0.0 | 0.0 | 0.00 | 0.00 | 0.00 | 87 | 1019.4 |
| 20260901094133 | 74 | 36 | 0.0 | 1.0 | 0.00 | 0.00 | 0.00 | 86 | 1019.3 |
| 20260901093628 | 74 | 310 | 0.0 | 2.0 | 0.00 | 0.00 | 0.00 | 86 | 1019.6 |
| 20260901093127 | 74 | 12 | 1.0 | 2.0 | 0.00 | 0.00 | 0.00 | 86 | 1019.5 |
| 20260901092623 | 74 | 11 | 0.0 | 1.0 | 0.00 | 0.00 | 0.00 | 86 | 1019.3 |
| 20260901092119 | 75 | 13 | 0.0 | 1.0 | 0.00 | 0.00 | 0.00 | 86 | 1019.4 |
| 20260901091614 | 75 | 30 | 1.0 | 2.0 | 0.00 | 0.00 | 0.00 | 86 | 1019.3 |
| 20260901091110 | 75 | 309 | 0.0 | 1.0 | 0.00 | 0.00 | 0.00 | 85 | 1019.1 |
| 20260901090609 | 75 | 142 | 0.0 | 1.0 | 0.00 | 0.00 | 0.00 | 85 | 1019.2 |
| 20260901090105 | 75 | 25 | 0.0 | 1.0 | 0.00 | 0.00 | 0.00 | 85 | 1019.2 |
| 20260901085600 | 75 | 22 | 0.0 | 2.0 | 0.00 | 0.00 | 0.00 | 85 | 1019.0 |
| 20260901085056 | 75 | 23 | 1.0 | 2.0 | 0.00 | 0.00 | 0.00 | 85 | 1019.1 |
| 20260901084552 | 75 | 25 | 0.0 | 1.0 | 0.00 | 0.00 | 0.00 | 85 | 1018.9 |
| 20260901084048 | 75 | 0 | 0.0 | 1.0 | 0.00 | 0.00 | 0.00 | 85 | 1018.9 |
| 20260901083548 | 75 | 246 | 0.0 | 1.0 | 0.00 | 0.00 | 0.00 | 85 | 1018.9 |
| 20260901083046 | 75 | 348 | 0.0 | 2.0 | 0.00 | 0.00 | 0.00 | 85 | 1019.0 |
| 20260901082541 | 75 | 35 | 0.0 | 2.0 | 0.00 | 0.00 | 0.00 | 84 | 1018.9 |
| 20260901082037 | 75 | 126 | 0.0 | 2.0 | 0.00 | 0.00 | 0.00 | 84 | 1018.8 |
| 20260901081532 | 76 | 49 | 0.0 | 1.0 | 0.00 | 0.00 | 0.00 | 84 | 1018.8 |
| 20260901081026 | 76 | 25 | 0.0 | 1.0 | 0.00 | 0.00 | 0.00 | 84 | 1019.0 |
| 20260901080526 | 76 | 321 | 0.0 | 1.0 | 0.00 | 0.00 | 0.00 | 84 | 1018.7 |
| 20260901080020 | 76 | 315 | 0.0 | 0.0 | 0.00 | 0.00 | 0.00 | 84 | 1018.8 |
| 20260901075516 | 76 | 304 | 0.0 | 1.0 | 0.00 | 0.00 | 0.00 | 84 | 1018.7 |
| 20260901075015 | 76 | 35 | 0.0 | 1.0 | 0.00 | 0.00 | 0.00 | 84 | 1018.6 |
| 20260901074514 | 76 | 117 | 0.0 | 0.0 | 0.00 | 0.00 | 0.00 | 84 | 1018.8 |
| 20260901074009 | 76 | 129 | 0.0 | 1.0 | 0.00 | 0.00 | 0.00 | 84 | 1018.7 |
| 20260901073506 | 76 | 129 | 0.0 | 1.0 | 0.00 | 0.00 | 0.00 | 84 | 1018.7 |
| 20260901073001 | 76 | 142 | 0.0 | 1.0 | 0.00 | 0.00 | 0.00 | 84 | 1018.8 |
| 20260901072455 | 76 | 49 | 0.0 | 0.0 | 0.00 | 0.00 | 0.00 | 84 | 1018.9 |
| 20260901071945 | 76 | 49 | 0.0 | 0.0 | 0.00 | 0.00 | 0.00 | 84 | 1018.8 |
| 20260901071444 | 76 | 30 | 0.0 | 1.0 | 0.00 | 0.00 | 0.00 | 84 | 1018.8 |
| 20260901070943 | 76 | 7 | 0.0 | 0.0 | 0.00 | 0.00 | 0.00 | 84 | 1018.7 |
| 20260901070439 | 76 | 7 | 0.0 | 0.0 | 0.00 | 0.00 | 0.00 | 84 | 1018.7 |
| 20260901065937 | 76 | 7 | 0.0 | 0.0 | 0.00 | 0.00 | 0.00 | 84 | 1018.8 |
| 20260901065434 | 76 | 7 | 0.0 | 1.0 | 0.00 | 0.00 | 0.00 | 84 | 1018.7 |
| 20260901064928 | 76 | 150 | 0.0 | 0.0 | 0.00 | 0.00 | 0.00 | 84 | 1018.7 |
| 20260901064425 | 76 | 157 | 0.0 | 1.0 | 0.00 | 0.00 | 0.00 | 84 | 1018.6 |
| 20260901063922 | 76 | 154 | 0.0 | 0.0 | 0.00 | 0.00 | 0.00 | 84 | 1018.9 |
| 20260901063418 | 76 | 154 | 0.0 | 0.0 | 0.00 | 0.00 | 0.00 | 84 | 1018.9 |
| 20260901062914 | 77 | 129 | 0.0 | 1.0 | 0.00 | 0.00 | 0.00 | 84 | 1018.9 |
| 20260901062410 | 77 | 158 | 0.0 | 2.0 | 0.00 | 0.00 | 0.00 | 84 | 1018.9 |
| 20260901061905 | 77 | 129 | 0.0 | 0.0 | 0.00 | 0.00 | 0.00 | 84 | 1019.0 |
| 20260901061401 | 77 | 129 | 0.0 | 0.0 | 0.00 | 0.00 | 0.00 | 84 | 1018.9 |
| 20260901060855 | 77 | 129 | 0.0 | 0.0 | 0.00 | 0.00 | 0.00 | 83 | 1018.7 |
| 20260901060351 | 77 | 129 | 0.0 | 0.0 | 0.00 | 0.00 | 0.00 | 83 | 1018.9 |
| 20260901055850 | 77 | 129 | 0.0 | 0.0 | 0.00 | 0.00 | 0.00 | 83 | 1018.8 |
| 20260901055347 | 77 | 129 | 0.0 | 0.0 | 0.00 | 0.00 | 0.00 | 83 | 1018.9 |
| 20260901054843 | 77 | 120 | 1.0 | 2.0 | 0.00 | 0.00 | 0.00 | 83 | 1018.8 |
| 20260901054341 | 77 | 142 | 0.0 | 1.0 | 0.00 | 0.00 | 0.00 | 83 | 1018.8 |
| 20260901053836 | 77 | 113 | 0.0 | 0.0 | 0.00 | 0.00 | 0.00 | 82 | 1018.7 |
| 20260901053331 | 77 | 113 | 0.0 | 0.0 | 0.00 | 0.00 | 0.00 | 82 | 1018.8 |
| 20260901052827 | 77 | 113 | 0.0 | 1.0 | 0.00 | 0.00 | 0.00 | 82 | 1018.8 |
| 20260901052322 | 77 | 37 | 0.0 | 0.0 | 0.00 | 0.00 | 0.00 | 82 | 1018.9 |
| 20260901051820 | 77 | 37 | 0.0 | 0.0 | 0.00 | 0.00 | 0.00 | 82 | 1018.8 |
| 20260901051316 | 77 | 37 | 0.0 | 0.0 | 0.00 | 0.00 | 0.00 | 82 | 1019.0 |
| 20260901050811 | 77 | 37 | 0.0 | 0.0 | 0.00 | 0.00 | 0.00 | 82 | 1018.9 |
| 20260901050306 | 77 | 37 | 0.0 | 0.0 | 0.00 | 0.00 | 0.00 | 82 | 1018.9 |
| 20260901045756 | 77 | 37 | 0.0 | 1.0 | 0.00 | 0.00 | 0.00 | 82 | 1018.9 |
| 20260901045250 | 77 | 154 | 0.0 | 0.0 | 0.00 | 0.00 | 0.00 | 81 | 1018.8 |
| 20260901044746 | 77 | 154 | 0.0 | 1.0 | 0.00 | 0.00 | 0.00 | 81 | 1018.8 |
| 20260901044242 | 78 | 131 | 0.0 | 1.0 | 0.00 | 0.00 | 0.00 | 80 | 1018.9 |
| 20260901043737 | 78 | 142 | 0.0 | 1.0 | 0.00 | 0.00 | 0.00 | 80 | 1018.9 |
| 20260901043233 | 78 | 25 | 0.0 | 0.0 | 0.00 | 0.00 | 0.00 | 79 | 1018.8 |
| 20260901042732 | 78 | 25 | 0.0 | 0.0 | 0.00 | 0.00 | 0.00 | 79 | 1018.9 |
| 20260901042226 | 78 | 25 | 0.0 | 0.0 | 0.00 | 0.00 | 0.00 | 79 | 1018.9 |
| 20260901041723 | 78 | 157 | 0.0 | 0.0 | 0.00 | 0.00 | 0.00 | 79 | 1018.9 |
| 20260901041222 | 78 | 157 | 0.0 | 0.0 | 0.00 | 0.00 | 0.00 | 78 | 1018.9 |
| 20260901040717 | 78 | 157 | 0.0 | 0.0 | 0.00 | 0.00 | 0.00 | 78 | 1019.0 |
| 20260901040216 | 78 | 157 | 0.0 | 1.0 | 0.00 | 0.00 | 0.00 | 78 | 1019.1 |
| 20260901035715 | 79 | 142 | 0.0 | 0.0 | 0.00 | 0.00 | 0.00 | 78 | 1018.9 |
| 20260901035214 | 79 | 142 | 0.0 | 0.0 | 0.00 | 0.00 | 0.00 | 77 | 1019.0 |
| 20260901034708 | 79 | 142 | 0.0 | 0.0 | 0.00 | 0.00 | 0.00 | 77 | 1019.2 |
| 20260901034203 | 79 | 142 | 0.0 | 1.0 | 0.00 | 0.00 | 0.00 | 77 | 1019.2 |
| 20260901033702 | 80 | 141 | 0.0 | 1.0 | 0.00 | 0.00 | 0.00 | 76 | 1019.2 |
| 20260901033202 | 80 | 62 | 0.0 | 0.0 | 0.00 | 0.00 | 0.00 | 76 | 1019.4 |
| 20260901032700 | 80 | 62 | 0.0 | 0.0 | 0.00 | 0.00 | 0.00 | 75 | 1019.3 |
| 20260901032154 | 80 | 62 | 0.0 | 1.0 | 0.00 | 0.00 | 0.00 | 75 | 1019.1 |
| 20260901031645 | 80 | 89 | 0.0 | 1.0 | 0.00 | 0.00 | 0.00 | 74 | 1019.3 |
| 20260901031141 | 80 | 37 | 0.0 | 0.0 | 0.00 | 0.00 | 0.00 | 74 | 1019.2 |
| 20260901030641 | 80 | 82 | 0.0 | 1.0 | 0.00 | 0.00 | 0.00 | 74 | 1019.3 |
| 20260901030135 | 81 | 117 | 0.0 | 0.0 | 0.00 | 0.00 | 0.00 | 73 | 1019.3 |
| 20260901025630 | 81 | 117 | 0.0 | 1.0 | 0.00 | 0.00 | 0.00 | 73 | 1019.2 |
| 20260901025125 | 81 | 129 | 0.0 | 0.0 | 0.00 | 0.00 | 0.00 | 72 | 1019.3 |
| 20260901024624 | 81 | 129 | 0.0 | 0.0 | 0.00 | 0.00 | 0.00 | 72 | 1019.5 |
| 20260901024123 | 81 | 129 | 0.0 | 0.0 | 0.00 | 0.00 | 0.00 | 71 | 1019.2 |
| 20260901023623 | 81 | 129 | 0.0 | 0.0 | 0.00 | 0.00 | 0.00 | 71 | 1019.2 |
| 20260901023117 | 81 | 129 | 0.0 | 0.0 | 0.00 | 0.00 | 0.00 | 71 | 1019.3 |
| 20260901022613 | 82 | 129 | 0.0 | 1.0 | 0.00 | 0.00 | 0.00 | 70 | 1019.3 |
| 20260901022108 | 82 | 142 | 0.0 | 1.0 | 0.00 | 0.00 | 0.00 | 70 | 1019.2 |
| 20260901021604 | 82 | 129 | 0.0 | 0.0 | 0.00 | 0.00 | 0.00 | 69 | 1019.2 |
| 20260901021058 | 82 | 129 | 0.0 | 1.0 | 0.00 | 0.00 | 0.00 | 69 | 1019.1 |
| 20260901020554 | 83 | 142 | 0.0 | 0.0 | 0.00 | 0.00 | 0.00 | 68 | 1019.1 |
| 20260901020049 | 83 | 142 | 0.0 | 0.0 | 0.00 | 0.00 | 0.00 | 68 | 1019.1 |
| 20260901015545 | 83 | 142 | 0.0 | 0.0 | 0.00 | 0.00 | 0.00 | 68 | 1019.0 |
| 20260901015044 | 83 | 164 | 0.0 | 1.0 | 0.00 | 0.00 | 0.00 | 68 | 1018.9 |
| 20260901014540 | 83 | 117 | 0.0 | 0.0 | 0.00 | 0.00 | 0.00 | 67 | 1018.8 |
| 20260901014036 | 83 | 134 | 0.0 | 1.0 | 0.00 | 0.00 | 0.00 | 67 | 1018.9 |
| 20260901013531 | 84 | 135 | 0.0 | 0.0 | 0.00 | 0.00 | 0.00 | 66 | 1018.6 |
| 20260901013027 | 84 | 135 | 0.0 | 1.0 | 0.00 | 0.00 | 0.00 | 65 | 1018.6 |
| 20260901012526 | 84 | 142 | 0.0 | 1.0 | 0.00 | 0.00 | 0.00 | 64 | 1018.4 |
| 20260901012022 | 85 | 166 | 0.0 | 1.0 | 0.00 | 0.00 | 0.00 | 64 | 1018.3 |
| 20260901011519 | 85 | 205 | 0.0 | 1.0 | 0.00 | 0.00 | 0.00 | 63 | 1018.5 |
| 20260901011016 | 85 | 117 | 0.0 | 0.0 | 0.00 | 0.00 | 0.00 | 63 | 1018.3 |
| 20260901010511 | 86 | 117 | 0.0 | 1.0 | 0.00 | 0.00 | 0.00 | 63 | 1018.2 |
| 20260901010011 | 86 | 117 | 0.0 | 1.0 | 0.00 | 0.00 | 0.00 | 62 | 1018.0 |
| 20260901005505 | 86 | 124 | 0.0 | 0.0 | 0.00 | 0.00 | 0.00 | 61 | 1018.1 |
| 20260901005000 | 87 | 120 | 0.0 | 2.0 | 0.00 | 0.00 | 0.00 | 60 | 1018.0 |
| 20260901004500 | 87 | 117 | 0.0 | 1.0 | 0.00 | 0.00 | 0.00 | 60 | 1018.0 |
| 20260901003955 | 87 | 117 | 0.0 | 0.0 | 0.00 | 0.00 | 0.00 | 59 | 1018.0 |
| 20260901003450 | 87 | 124 | 0.0 | 1.0 | 0.00 | 0.00 | 0.00 | 59 | 1017.9 |